Skip Page Navigation
NASA JPL Caltech
NASA Logo - Jet Propulsion Laboratory + View the NASA Portal
+ Center for Near-Earth Object Studies
JPL Home Earth Solar System Stars & Galaxies Technology
JPL Solar System Dynamics
BODIES ORBITS EPHEMERIDES TOOLS PHYSICAL DATA DISCOVERY FAQ SITE MAP
JPL Small-Body Database Browser
Search: [ help ]  
5632 Ingelehmann (1993 GG)
Classification: Main-belt Asteroid          SPK-ID: 2005632
Ephemeris | Orbit Diagram | Orbital Elements | Mission Design | Physical Parameters | Discovery Circumstances ]

[ show orbit diagram ]
Orbital Elements at Epoch 2459200.5 (2020-Dec-17.0) TDB
Reference: JPL 42 (heliocentric ecliptic J2000)
 Element Value Uncertainty (1-sigma)   Units 
e .08353329485093132 1.9915e-08  
a 2.743448643482799 1.3927e-08 au
q 2.514279339038363 5.7271e-08 au
i 18.19484239169288 5.0686e-07 deg
node 82.3091482627526 1.3877e-06 deg
peri 192.4460515204049 5.3584e-06 deg
M 336.2706276443922 3.8357e-06 deg
tp 2459309.902546127903
(2021-Apr-05.40254613)
1.7728e-05 TDB
period 1659.753828117473
4.54
1.2639e-05
3.46e-08
d
yr
n .2168996352961086 1.6517e-09 deg/d
Q 2.972617947927235 1.5091e-08 au
  Orbit Determination Parameters
   # obs. used (total)      2388  
   data-arc span      13471 days (36.88 yr)  
   first obs. used      1984-05-04  
   last obs. used      2021-03-22  
   planetary ephem.      DE441  
   SB-pert. ephem.      SB441-N16  
   condition code      0  
   norm. resid. RMS      .39288  
   source      ORB  
   producer      Otto Matic  
   solution date      2021-May-03 22:23:21  

Additional Information
 Earth MOID = 1.49854 au 
 Jupiter MOID = 2.12302 au 
 T_jup = 3.271 
[ show covariance matrix ]

Ephemeris | Orbit Diagram | Orbital Elements | Mission Design | Physical Parameters | Discovery Circumstances ]

Physical Parameter Table
Parameter Symbol Value Units Sigma Reference Notes
absolute magnitude H 12.04   n/a E2021B10  
diameter diameter 13.375 km 0.207 urn:nasa:pds:neowise_diameters_albedos::2.0[mainbelt] (http://adsabs.harvard.edu/abs/2014ApJ...791..121M)  
geometric albedo albedo 0.230   0.020 urn:nasa:pds:neowise_diameters_albedos::2.0[mainbelt] (http://adsabs.harvard.edu/abs/2012ApJ...759L...8M)  
SMASSII spectral type spec_B Xc   n/a EAR-A-5-DDR-TAXONOMY-V4.0 based on a high-resolution spectrum by Xu et al. (1995) or Bus and Binzel (2002)

5632 Ingelehmann (1993 GG)          Discovered 1993-Apr-15 by Shoemaker, C. S. at Palomar
Reference: DISCOVERY.DBLast Updated: 2003-08-29

Alternate Designations
 1993 GG = 1952 HF2 = 1984 JG1 = 1985 VZ 
Ephemeris | Orbit Diagram | Orbital Elements | Mission Design | Physical Parameters | Discovery Circumstances ]
ABOUT SSD CREDITS/AWARDS PRIVACY/COPYRIGHT GLOSSARY LINKS
FirstGov 2021-Jun-18 22:21 UT
(server date/time)  
NASA Home Page
Site Manager:   Ryan S. Park
Webmaster  Alan B. Chamberlin